NKS1321 KPHX-KLAX

Flight info

Callsign NKS1321
Flight time 1h 5m
Altitude 28000
Route KEENS3 WLVRN DCT ESTWD HLYWD1
Aircraft A320/M-V/N

Departure

Time 2026-05-04 02:16
Airport Phoenix Sky Harbor International Airport (KPHX)

Arrival

Time 2026-05-04 03:21
Airport Los Angeles International Airport (KLAX)
Time Latitude Longitude Altitude Speed Heading
2026-05-04 01:44 33.43688 -112.00239 1124 ft 0 kts 90°
2026-05-04 02:02 33.43688 -112.00240 1124 ft 2 kts 90°
2026-05-04 02:03 33.43688 -112.00260 1115 ft 2 kts 91°
2026-05-04 02:03 33.43688 -112.00281 1118 ft 2 kts 91°
2026-05-04 02:03 33.43688 -112.00301 1121 ft 3 kts 101°
2026-05-04 02:03 33.43694 -112.00321 1117 ft 3 kts 137°
2026-05-04 02:04 33.43707 -112.00332 1121 ft 0 kts 168°
2026-05-04 02:06 33.43698 -112.00334 1118 ft 6 kts 193°
2026-05-04 02:06 33.43603 -112.00370 1124 ft 21 kts 184°
2026-05-04 02:07 33.43452 -112.00379 1121 ft 22 kts 181°
2026-05-04 02:07 33.43325 -112.00380 1121 ft 11 kts 178°
2026-05-04 02:07 33.43284 -112.00316 1118 ft 11 kts 94°
2026-05-04 02:07 33.43283 -112.00216 1121 ft 13 kts 90°
2026-05-04 02:08 33.43283 -112.00105 1119 ft 14 kts 90°
2026-05-04 02:08 33.43280 -111.99984 1122 ft 15 kts 95°
2026-05-04 02:08 33.43279 -111.99854 1124 ft 16 kts 83°
2026-05-04 02:08 33.43284 -111.99715 1124 ft 17 kts 90°
2026-05-04 02:09 33.43283 -111.99566 1118 ft 18 kts 90°
2026-05-04 02:09 33.43284 -111.99413 1118 ft 13 kts 90°
2026-05-04 02:09 33.43284 -111.99302 1118 ft 14 kts 91°
2026-05-04 02:09 33.43226 -111.99257 1124 ft 9 kts 208°
2026-05-04 02:10 33.43196 -111.99282 1113 ft 0 kts 223°
2026-05-04 02:12 33.43189 -111.99289 1113 ft 6 kts 223°
2026-05-04 02:12 33.43124 -111.99360 1123 ft 14 kts 223°
2026-05-04 02:12 33.43104 -111.99419 1123 ft 0 kts 270°
2026-05-04 02:15 33.43103 -111.99623 1124 ft 64 kts 270°
2026-05-04 02:15 33.43104 -112.00471 1125 ft 135 kts 270°
2026-05-04 02:15 33.43105 -112.01813 1227 ft 181 kts 270°
2026-05-04 02:16 33.43137 -112.03401 1831 ft 202 kts 270°
2026-05-04 02:16 33.43146 -112.05184 2531 ft 224 kts 264°
2026-05-04 02:16 33.43017 -112.07061 3332 ft 232 kts 257°
2026-05-04 02:16 33.42599 -112.08994 4087 ft 250 kts 249°
2026-05-04 02:17 33.41988 -112.10944 4887 ft 251 kts 246°
2026-05-04 02:17 33.41325 -112.12894 5705 ft 254 kts 245°
2026-05-04 02:17 33.40651 -112.14866 6504 ft 257 kts 245°
2026-05-04 02:17 33.39987 -112.16853 7296 ft 258 kts 245°
2026-05-04 02:18 33.39400 -112.18883 8100 ft 261 kts 254°
2026-05-04 02:18 33.39263 -112.21091 8797 ft 274 kts 271°
2026-05-04 02:18 33.39579 -112.23391 9443 ft 284 kts 276°
2026-05-04 02:18 33.39937 -112.25741 10054 ft 291 kts 276°
2026-05-04 02:19 33.40299 -112.28143 10646 ft 294 kts 276°
2026-05-04 02:19 33.40660 -112.30554 11254 ft 295 kts 276°
2026-05-04 02:19 33.41024 -112.32979 11872 ft 295 kts 276°
2026-05-04 02:19 33.41381 -112.35368 12488 ft 296 kts 276°
2026-05-04 02:20 33.41740 -112.37797 13129 ft 297 kts 276°
2026-05-04 02:20 33.42099 -112.40230 13762 ft 298 kts 276°
2026-05-04 02:20 33.42460 -112.42677 14345 ft 298 kts 276°
2026-05-04 02:20 33.42822 -112.45121 14941 ft 299 kts 276°
2026-05-04 02:21 33.43184 -112.47573 15545 ft 299 kts 276°
2026-05-04 02:21 33.43544 -112.50031 16165 ft 300 kts 276°
2026-05-04 02:21 33.43904 -112.52498 16792 ft 301 kts 276°
2026-05-04 02:21 33.44265 -112.54974 17463 ft 302 kts 276°
2026-05-04 02:22 33.44628 -112.57453 18123 ft 303 kts 276°
2026-05-04 02:22 33.44968 -112.59941 18697 ft 302 kts 272°
2026-05-04 02:22 33.45059 -112.62440 19280 ft 300 kts 268°
2026-05-04 02:22 33.45091 -112.64931 19869 ft 299 kts 268°
2026-05-04 02:23 33.45120 -112.67418 20475 ft 298 kts 268°
2026-05-04 02:23 33.45148 -112.69894 21092 ft 296 kts 268°
2026-05-04 02:23 33.45176 -112.72348 21718 ft 293 kts 268°
2026-05-04 02:23 33.45208 -112.74774 22354 ft 290 kts 269°
2026-05-04 02:24 33.45240 -112.77167 23018 ft 285 kts 269°
2026-05-04 02:24 33.45426 -112.79521 23637 ft 283 kts 277°
2026-05-04 02:24 33.45922 -112.81788 24200 ft 280 kts 285°
2026-05-04 02:24 33.46656 -112.83934 24765 ft 276 kts 287°
2026-05-04 02:25 33.47401 -112.86028 25343 ft 270 kts 287°
2026-05-04 02:25 33.48124 -112.88072 25880 ft 266 kts 287°
2026-05-04 02:25 33.48849 -112.90146 26053 ft 274 kts 287°
2026-05-04 02:25 33.49594 -112.92297 26149 ft 285 kts 287°
2026-05-04 02:26 33.50354 -112.94499 26249 ft 295 kts 287°
2026-05-04 02:26 33.51153 -112.96809 26344 ft 305 kts 287°
2026-05-04 02:26 33.51984 -112.99199 26443 ft 316 kts 287°
2026-05-04 02:26 33.52855 -113.01696 26544 ft 326 kts 287°
2026-05-04 02:27 33.53732 -113.04204 26639 ft 335 kts 287°
2026-05-04 02:27 33.54645 -113.06820 26732 ft 344 kts 287°
2026-05-04 02:27 33.55579 -113.09494 26839 ft 352 kts 287°
2026-05-04 02:27 33.56539 -113.12244 26939 ft 362 kts 287°
2026-05-04 02:28 33.57518 -113.15056 27043 ft 370 kts 287°
2026-05-04 02:28 33.58519 -113.17938 27180 ft 378 kts 287°
2026-05-04 02:28 33.59540 -113.20879 27310 ft 386 kts 288°
2026-05-04 02:28 33.60579 -113.23865 27450 ft 389 kts 288°
2026-05-04 02:29 33.61623 -113.26863 27585 ft 390 kts 288°
2026-05-04 02:29 33.62667 -113.29869 27719 ft 391 kts 287°
2026-05-04 02:29 33.63709 -113.32878 27902 ft 391 kts 287°
2026-05-04 02:29 33.64752 -113.35898 28005 ft 392 kts 287°
2026-05-04 02:30 33.66838 -113.41934 28054 ft 391 kts 287°
2026-05-04 02:30 33.68915 -113.47970 28094 ft 391 kts 287°
2026-05-04 02:31 33.70990 -113.54009 28102 ft 392 kts 287°
2026-05-04 02:31 33.73061 -113.60053 28073 ft 392 kts 287°
2026-05-04 02:32 33.75134 -113.66124 28038 ft 392 kts 287°
2026-05-04 02:32 33.77207 -113.72181 27985 ft 392 kts 287°
2026-05-04 02:33 33.78241 -113.75206 27950 ft 392 kts 287°
2026-05-04 02:33 33.79279 -113.78238 27916 ft 392 kts 287°
2026-05-04 02:33 33.80311 -113.81263 27889 ft 391 kts 287°
2026-05-04 02:33 33.81343 -113.84295 27850 ft 391 kts 287°
2026-05-04 02:34 33.82373 -113.87326 27806 ft 391 kts 287°
2026-05-04 02:34 33.83405 -113.90358 27786 ft 391 kts 287°
2026-05-04 02:34 33.84433 -113.93380 27779 ft 391 kts 287°
2026-05-04 02:34 33.85463 -113.96408 27770 ft 391 kts 287°
2026-05-04 02:35 33.86491 -113.99442 27770 ft 391 kts 287°
2026-05-04 02:35 33.87513 -114.02465 27766 ft 391 kts 286°
2026-05-04 02:35 33.88525 -114.05458 27761 ft 390 kts 286°
2026-05-04 02:35 33.89549 -114.08490 27756 ft 390 kts 286°
2026-05-04 02:36 33.90509 -114.11535 27753 ft 387 kts 281°
2026-05-04 02:36 33.91092 -114.14679 27747 ft 384 kts 277°
2026-05-04 02:36 33.91625 -114.17837 27746 ft 384 kts 277°
2026-05-04 02:36 33.92155 -114.20986 27743 ft 384 kts 277°
2026-05-04 02:37 33.92687 -114.24139 27741 ft 384 kts 277°
2026-05-04 02:37 33.93222 -114.27298 27739 ft 385 kts 277°
2026-05-04 02:37 33.93760 -114.30451 27736 ft 385 kts 277°
2026-05-04 02:37 33.94294 -114.33606 27733 ft 385 kts 277°
2026-05-04 02:38 33.94826 -114.36762 27733 ft 385 kts 277°
2026-05-04 02:38 33.95358 -114.39930 27730 ft 385 kts 277°
2026-05-04 02:38 33.95886 -114.43086 27729 ft 385 kts 277°
2026-05-04 02:38 33.96418 -114.46247 27727 ft 385 kts 277°
2026-05-04 02:39 33.96950 -114.49403 27727 ft 385 kts 277°
2026-05-04 02:39 33.97480 -114.52551 27728 ft 385 kts 277°
2026-05-04 02:39 33.98010 -114.55721 27720 ft 385 kts 277°
2026-05-04 02:39 33.98537 -114.58882 27719 ft 385 kts 277°
2026-05-04 02:40 33.99063 -114.62045 27708 ft 386 kts 277°
2026-05-04 02:40 33.99412 -114.64142 27701 ft 386 kts 277°
2026-05-04 02:40 34.00118 -114.68398 27708 ft 386 kts 277°
2026-05-04 02:40 34.00643 -114.71542 27725 ft 381 kts 277°
2026-05-04 02:41 34.01164 -114.74670 27726 ft 379 kts 277°
2026-05-04 02:41 34.01505 -114.76728 27728 ft 379 kts 277°
2026-05-04 02:41 34.02021 -114.79848 27728 ft 378 kts 277°
2026-05-04 02:41 34.02532 -114.82958 27729 ft 378 kts 277°
2026-05-04 02:42 34.03039 -114.86058 27730 ft 378 kts 277°
2026-05-04 02:42 34.03547 -114.89170 27734 ft 378 kts 277°
2026-05-04 02:42 34.04053 -114.92279 27732 ft 377 kts 277°
2026-05-04 02:42 34.04561 -114.95388 27740 ft 377 kts 276°
2026-05-04 02:43 34.05065 -114.98485 27744 ft 377 kts 276°
2026-05-04 02:43 34.05570 -115.01587 27748 ft 377 kts 276°
2026-05-04 02:43 34.06079 -115.04700 27748 ft 377 kts 276°
2026-05-04 02:43 34.06587 -115.07802 27752 ft 377 kts 276°
2026-05-04 02:44 34.07091 -115.10905 27754 ft 377 kts 276°
2026-05-04 02:44 34.07594 -115.13998 27758 ft 376 kts 276°
2026-05-04 02:44 34.08098 -115.17100 27756 ft 376 kts 276°
2026-05-04 02:44 34.08595 -115.20155 27760 ft 376 kts 276°
2026-05-04 02:45 34.09096 -115.23257 27760 ft 376 kts 276°
2026-05-04 02:45 34.09593 -115.26348 27767 ft 376 kts 276°
2026-05-04 02:45 34.10092 -115.29449 27761 ft 376 kts 276°
2026-05-04 02:45 34.10590 -115.32542 27763 ft 376 kts 276°
2026-05-04 02:46 34.11088 -115.35636 27770 ft 376 kts 276°
2026-05-04 02:46 34.11586 -115.38731 27766 ft 376 kts 276°
2026-05-04 02:46 34.12082 -115.41820 27752 ft 372 kts 276°
2026-05-04 02:46 34.12566 -115.44820 27755 ft 359 kts 276°
2026-05-04 02:47 34.13037 -115.47754 27757 ft 355 kts 276°
2026-05-04 02:47 34.13503 -115.50683 27761 ft 354 kts 276°
2026-05-04 02:47 34.13962 -115.53599 27760 ft 354 kts 276°
2026-05-04 02:47 34.14422 -115.56514 27762 ft 353 kts 276°
2026-05-04 02:48 34.14882 -115.59429 27766 ft 353 kts 276°
2026-05-04 02:48 34.15341 -115.62342 27769 ft 353 kts 276°
2026-05-04 02:48 34.15800 -115.65251 27770 ft 353 kts 276°
2026-05-04 02:48 34.16208 -115.68172 27774 ft 350 kts 271°
2026-05-04 02:49 34.16186 -115.71087 27780 ft 347 kts 262°
2026-05-04 02:49 34.15897 -115.73977 27782 ft 347 kts 261°
2026-05-04 02:49 34.15614 -115.76867 27790 ft 347 kts 262°
2026-05-04 02:49 34.15336 -115.79759 27807 ft 347 kts 262°
2026-05-04 02:50 34.15060 -115.82651 27809 ft 347 kts 262°
2026-05-04 02:50 34.14781 -115.85543 27828 ft 347 kts 262°
2026-05-04 02:50 34.14503 -115.88435 27687 ft 346 kts 262°
2026-05-04 02:50 34.14225 -115.91313 27442 ft 345 kts 261°
2026-05-04 02:51 34.13944 -115.94186 27195 ft 344 kts 261°
2026-05-04 02:51 34.13662 -115.97051 26954 ft 343 kts 261°
2026-05-04 02:51 34.13383 -115.99905 26712 ft 342 kts 262°
2026-05-04 02:51 34.13454 -116.02777 26470 ft 348 kts 278°
2026-05-04 02:52 34.14362 -116.05530 26242 ft 358 kts 290°
2026-05-04 02:52 34.15541 -116.08189 26009 ft 360 kts 290°
2026-05-04 02:52 34.16739 -116.10843 25777 ft 360 kts 291°
2026-05-04 02:52 34.17939 -116.13497 25540 ft 360 kts 291°
2026-05-04 02:53 34.19134 -116.16151 25311 ft 360 kts 291°
2026-05-04 02:53 34.20327 -116.18807 25081 ft 359 kts 291°
2026-05-04 02:53 34.21517 -116.21464 24847 ft 359 kts 291°
2026-05-04 02:53 34.22703 -116.24116 24611 ft 359 kts 291°
2026-05-04 02:54 34.23885 -116.26765 24394 ft 358 kts 291°
2026-05-04 02:54 34.25064 -116.29415 24156 ft 358 kts 291°
2026-05-04 02:54 34.26241 -116.32063 23949 ft 357 kts 291°
2026-05-04 02:54 34.27404 -116.34679 23851 ft 357 kts 291°
2026-05-04 02:55 34.29761 -116.39968 23855 ft 358 kts 291°
2026-05-04 02:55 34.30951 -116.42626 23843 ft 358 kts 291°
2026-05-04 02:55 34.32135 -116.45273 23835 ft 358 kts 291°
2026-05-04 02:56 34.33312 -116.47929 23819 ft 356 kts 288°
2026-05-04 02:56 34.33997 -116.50734 23807 ft 343 kts 270°
2026-05-04 02:56 34.33766 -116.53551 23798 ft 336 kts 251°
2026-05-04 02:56 34.32660 -116.56029 23789 ft 339 kts 232°
2026-05-04 02:57 34.30883 -116.57952 23651 ft 342 kts 221°
2026-05-04 02:57 34.29020 -116.59623 23420 ft 327 kts 221°
2026-05-04 02:57 34.27220 -116.61206 23162 ft 313 kts 221°
2026-05-04 02:57 34.25476 -116.62725 22899 ft 307 kts 221°
2026-05-04 02:58 34.23751 -116.64224 22643 ft 305 kts 221°
2026-05-04 02:58 34.22027 -116.65728 22381 ft 304 kts 221°
2026-05-04 02:58 34.20317 -116.67225 22113 ft 303 kts 221°
2026-05-04 02:58 34.18614 -116.68718 21863 ft 302 kts 221°
2026-05-04 02:59 34.16944 -116.70244 21609 ft 299 kts 227°
2026-05-04 02:59 34.15707 -116.72178 21201 ft 292 kts 243°
2026-05-04 02:59 34.14783 -116.74359 20721 ft 291 kts 244°
2026-05-04 02:59 34.13872 -116.76531 20272 ft 289 kts 244°
2026-05-04 03:00 34.12966 -116.78692 19823 ft 288 kts 244°
2026-05-04 03:00 34.12064 -116.80846 19386 ft 287 kts 244°
2026-05-04 03:00 34.11165 -116.82984 18953 ft 285 kts 243°
2026-05-04 03:00 34.10271 -116.85105 18534 ft 282 kts 243°
2026-05-04 03:01 34.09392 -116.87211 18110 ft 281 kts 244°
2026-05-04 03:01 34.08510 -116.89309 17624 ft 280 kts 243°
2026-05-04 03:01 34.07631 -116.91391 17146 ft 278 kts 243°
2026-05-04 03:01 34.06755 -116.93461 17021 ft 278 kts 243°
2026-05-04 03:02 34.05865 -116.95556 17031 ft 280 kts 243°
2026-05-04 03:02 34.04978 -116.97643 17037 ft 281 kts 243°
2026-05-04 03:02 34.04088 -116.99739 17044 ft 281 kts 243°
2026-05-04 03:02 34.03204 -117.01836 17050 ft 280 kts 245°
2026-05-04 03:03 34.02569 -117.04056 17056 ft 281 kts 256°
2026-05-04 03:03 34.02241 -117.06400 16494 ft 286 kts 259°
2026-05-04 03:03 34.01960 -117.08765 16043 ft 282 kts 259°
2026-05-04 03:03 34.01692 -117.11099 15707 ft 281 kts 259°
2026-05-04 03:04 34.01426 -117.13430 15370 ft 281 kts 259°
2026-05-04 03:04 34.01155 -117.15765 15106 ft 281 kts 259°
2026-05-04 03:04 34.00879 -117.18102 15063 ft 282 kts 259°
2026-05-04 03:04 34.00601 -117.20448 15077 ft 283 kts 259°
2026-05-04 03:05 34.00320 -117.22799 15053 ft 285 kts 259°
2026-05-04 03:05 34.00037 -117.25156 14636 ft 283 kts 258°
2026-05-04 03:05 33.99755 -117.27506 14238 ft 285 kts 258°
2026-05-04 03:05 33.99474 -117.29866 14065 ft 285 kts 258°
2026-05-04 03:06 33.99192 -117.32233 14090 ft 286 kts 258°
2026-05-04 03:06 33.98912 -117.34614 13775 ft 286 kts 259°
2026-05-04 03:06 33.98637 -117.36954 13395 ft 285 kts 259°
2026-05-04 03:06 33.98357 -117.39338 13003 ft 284 kts 259°
2026-05-04 03:07 33.98080 -117.41689 12616 ft 282 kts 258°
2026-05-04 03:07 33.97807 -117.43993 12245 ft 281 kts 259°
2026-05-04 03:07 33.97532 -117.46316 12092 ft 280 kts 259°
2026-05-04 03:07 33.97261 -117.48643 12102 ft 281 kts 261°
2026-05-04 03:08 33.97191 -117.51006 12104 ft 283 kts 265°
2026-05-04 03:08 33.97157 -117.53377 12107 ft 283 kts 265°
2026-05-04 03:08 33.97123 -117.55748 12114 ft 283 kts 265°
2026-05-04 03:08 33.97086 -117.58117 12114 ft 283 kts 265°
2026-05-04 03:09 33.97048 -117.60492 12115 ft 283 kts 265°
2026-05-04 03:09 33.97009 -117.62870 12112 ft 283 kts 265°
2026-05-04 03:09 33.96969 -117.65245 12115 ft 283 kts 265°
2026-05-04 03:09 33.96926 -117.67620 11759 ft 282 kts 265°
2026-05-04 03:10 33.96882 -117.69976 11337 ft 280 kts 265°
2026-05-04 03:10 33.96839 -117.72316 10925 ft 279 kts 265°
2026-05-04 03:10 33.96797 -117.74644 10518 ft 277 kts 266°
2026-05-04 03:10 33.96756 -117.76945 10109 ft 275 kts 266°
2026-05-04 03:11 33.96714 -117.79238 9686 ft 274 kts 266°
2026-05-04 03:11 33.96674 -117.81516 9239 ft 267 kts 266°
2026-05-04 03:11 33.96636 -117.83725 8801 ft 261 kts 266°
2026-05-04 03:11 33.96596 -117.85885 8361 ft 255 kts 266°
2026-05-04 03:12 33.96554 -117.88008 7937 ft 250 kts 267°
2026-05-04 03:12 33.96512 -117.90083 7524 ft 245 kts 266°
2026-05-04 03:12 33.96471 -117.92113 7111 ft 241 kts 267°
2026-05-04 03:12 33.96430 -117.94118 6703 ft 237 kts 267°
2026-05-04 03:13 33.96390 -117.96085 6288 ft 234 kts 268°
2026-05-04 03:13 33.96351 -117.98004 5854 ft 231 kts 268°
2026-05-04 03:13 33.96311 -117.99956 5413 ft 229 kts 268°
2026-05-04 03:13 33.96272 -118.01853 5106 ft 221 kts 268°
2026-05-04 03:14 33.96236 -118.03619 5118 ft 198 kts 268°
2026-05-04 03:14 33.96204 -118.05184 5106 ft 185 kts 268°
2026-05-04 03:14 33.96177 -118.06547 5120 ft 182 kts 268°
2026-05-04 03:14 33.96145 -118.08072 5106 ft 182 kts 268°
2026-05-04 03:15 33.96112 -118.09591 5101 ft 181 kts 268°
2026-05-04 03:15 33.96080 -118.11131 5098 ft 181 kts 268°
2026-05-04 03:15 33.96089 -118.12645 5108 ft 181 kts 272°
2026-05-04 03:15 33.96090 -118.14166 5107 ft 181 kts 266°
2026-05-04 03:16 33.96007 -118.15677 5061 ft 181 kts 266°
2026-05-04 03:16 33.95932 -118.17150 4835 ft 171 kts 265°
2026-05-04 03:16 33.95819 -118.18490 4665 ft 153 kts 263°
2026-05-04 03:16 33.95677 -118.19739 4319 ft 149 kts 260°
2026-05-04 03:17 33.95521 -118.20960 3871 ft 149 kts 261°
2026-05-04 03:17 33.95390 -118.22244 3391 ft 168 kts 262°
2026-05-04 03:17 33.95252 -118.23609 2909 ft 160 kts 262°
2026-05-04 03:17 33.95112 -118.24929 2425 ft 152 kts 263°
2026-05-04 03:18 33.94995 -118.26109 2214 ft 134 kts 263°
2026-05-04 03:18 33.94884 -118.27185 1911 ft 129 kts 262°
2026-05-04 03:18 33.94767 -118.28255 1705 ft 131 kts 263°
2026-05-04 03:18 33.94653 -118.29351 1579 ft 133 kts 262°
2026-05-04 03:19 33.94535 -118.30456 1421 ft 133 kts 263°
2026-05-04 03:19 33.94419 -118.31566 1254 ft 134 kts 262°
2026-05-04 03:19 33.94306 -118.32671 1078 ft 132 kts 263°
2026-05-04 03:19 33.94193 -118.33772 900 ft 132 kts 263°
2026-05-04 03:20 33.94081 -118.34874 705 ft 132 kts 263°
2026-05-04 03:20 33.93971 -118.35979 501 ft 135 kts 263°
2026-05-04 03:20 33.93863 -118.37098 346 ft 133 kts 263°
2026-05-04 03:20 33.93747 -118.38187 177 ft 131 kts 263°
2026-05-04 03:21 33.93640 -118.39223 108 ft 106 kts 263°
2026-05-04 03:21 33.93567 -118.39937 112 ft 72 kts 263°
2026-05-04 03:21 33.93536 -118.40420 112 ft 43 kts 278°
2026-05-04 03:21 33.93588 -118.40628 107 ft 0 kts 283°
2026-05-04 03:22 33.93590 -118.40634 107 ft 4 kts 283°
2026-05-04 03:22 33.93591 -118.40760 105 ft 20 kts 266°
2026-05-04 03:22 33.93608 -118.40845 106 ft 4 kts 292°
2026-05-04 03:23 33.93636 -118.40884 107 ft 19 kts 326°
2026-05-04 03:23 33.93770 -118.40911 103 ft 12 kts 353°
2026-05-04 03:23 33.93775 -118.40912 103 ft 0 kts 353°
2026-05-04 03:24 33.93777 -118.40912 102 ft 3 kts 353°
2026-05-04 03:24 33.93864 -118.40916 99 ft 12 kts 28°
2026-05-04 03:24 33.93879 -118.40834 97 ft 11 kts 59°
2026-05-04 03:24 33.93927 -118.40856 96 ft 11 kts 269°
2026-05-04 03:25 33.93971 -118.40878 96 ft 20 kts 354°
2026-05-04 03:25 33.94020 -118.40943 96 ft 2 kts 265°
2026-05-04 03:25 33.94019 -118.40948 96 ft 0 kts 265°